This is the latest recevied weather packets stored in our database for station/object KG4ZVW. If no packets are shown the sender has not sent any weather packets the latest 1 day(s).
| Time | Temp. | Humidity | Pressure | Rain* | Wind** | Luminosity | Snow |
|---|---|---|---|---|---|---|---|
| 1778013508 | 27.78° C | 54% | 1014.9 hPa | 0 mm | 2.24 m/s, 88° | 527 W/m² | - |
| 1778013206 | 27.78° C | 49% | 1014.9 hPa | 0 mm | 2.24 m/s, 105° | 529 W/m² | - |
| 1778012920 | 27.78° C | 51% | 1014.9 hPa | 0 mm | 1.79 m/s, 12° | 561 W/m² | - |
| 1778012616 | 27.78° C | 50% | 1015 hPa | 0 mm | 2.24 m/s, 24° | 570 W/m² | - |
| 1778012312 | 28.33° C | 50% | 1015 hPa | 0 mm | 3.58 m/s, 47° | 691 W/m² | - |
| 1778012007 | 28.33° C | 49% | 1015 hPa | 0 mm | 2.68 m/s, 72° | 682 W/m² | - |
| 1778011720 | 28.33° C | 51% | 1015.1 hPa | 0 mm | 1.79 m/s, 61° | 675 W/m² | - |
| 1778011414 | 28.33° C | 51% | 1015.1 hPa | 0 mm | 2.24 m/s, 69° | 707 W/m² | - |
| 1778011109 | 28.33° C | 50% | 1015.1 hPa | 0 mm | 2.24 m/s, 67° | 766 W/m² | - |
| 1778010805 | 28.33° C | 48% | 1015.2 hPa | 0 mm | 2.68 m/s, 36° | 719 W/m² | - |
| 1778010501 | 28.33° C | 49% | 1015.2 hPa | 0 mm | 1.79 m/s, 31° | 747 W/m² | - |
| 1778010216 | 28.33° C | 48% | 1015.2 hPa | 0 mm | 2.68 m/s, 79° | 742 W/m² | - |
| 1778009913 | 28.33° C | 51% | 1015.3 hPa | 0 mm | 3.58 m/s, 84° | 747 W/m² | - |
| 1778009608 | 28.33° C | 52% | 1015.3 hPa | 0 mm | 1.79 m/s, 76° | 777 W/m² | - |
| 1778009304 | 28.33° C | 54% | 1015.3 hPa | 0 mm | 2.24 m/s, 34° | 803 W/m² | - |
| 1778009020 | 28.33° C | 50% | 1015.4 hPa | 0 mm | 3.58 m/s, 78° | 817 W/m² | - |
| 1778008713 | 28.33° C | 51% | 1015.4 hPa | 0 mm | 4.47 m/s, 118° | 835 W/m² | - |
| 1778008410 | 28.33° C | 52% | 1015.4 hPa | 0 mm | 2.24 m/s, 39° | 833 W/m² | - |
| 1778008104 | 27.78° C | 50% | 1015.5 hPa | 0 mm | 3.58 m/s, 61° | 846 W/m² | - |
| 1778007819 | 27.78° C | 51% | 1015.5 hPa | 0 mm | 1.34 m/s, 66° | 847 W/m² | - |
| 1778007514 | 27.78° C | 54% | 1015.5 hPa | 0 mm | 2.24 m/s, 68° | 854 W/m² | - |
| 1778007209 | 27.78° C | 52% | 1015.6 hPa | 0 mm | 3.58 m/s, 72° | 870 W/m² | - |
| 1778006905 | 27.78° C | 56% | 1015.6 hPa | 0 mm | 3.13 m/s, 61° | 881 W/m² | - |
| 1778006621 | 27.78° C | 53% | 1015.6 hPa | 0 mm | 2.24 m/s, 98° | 905 W/m² | - |
| 1778006315 | 28.33° C | 56% | 1016 hPa | 0 mm | 3.13 m/s, 116° | 904 W/m² | - |
* Rain latest hour (hover to see other rain measurements)
** Current wind speed in m/s (hover to see current wind gust speed)